Weather History for Carmi, IL

Change the Weather History Date:

Monday, November 19, 2012

  Actual Average (KEVV) Record (KEVV)
Temperature  
Mean Temperature 48 °F 45 °F  
Max Temperature 63 °F 55 °F 81 °F (1930)
Min Temperature 34 °F 35 °F 14 °F (1914)
Degree Days  
Heating Degree Days 16 20  
Month to date heating degree days 309  
Since 1 July heating degree days 612  
Cooling Degree Days 0 0  
Month to date cooling degree days 0  
Year to date cooling degree days 1395  
Moisture  
Dew Point 41 °F    
Average Humidity 77    
Maximum Humidity 97    
Minimum Humidity 42    
Precipitation  
Precipitation 0.00 in 0.16 in 2.25 in (1950)
Month to date precipitation 2.66  
Year to date precipitation 39.88  
Snow  
Snow 0.00 in 0.00 in 2.00 in (1969)
Month to date snowfall 0.0  
Since 1 July snowfall 0.2  
Since 1 September snowfall 0.2  
Snow Depth -    
Sea Level Pressure  
Sea Level Pressure 30.26 in    
Wind  
Wind Speed 1 mph (SE)    
Max Wind Speed 6 mph    
Max Gust Speed -    
Visibility 8 miles    
Events      
T = Trace of Precipitation, MM = Missing Value Source: NWS Daily Summary

Daily Weather History Graph

Daily Weather History Graph

Search for Another Location

Airport:

Trip Planner

Search our weather history database for the weather conditions in past years. The results will help you decide how hot, cold, wet, or windy it might be!

Date:

Astronomy

Nov. 19, 2012 Rise Set
Actual Time 6:38 AM CST 4:37 PM CST
Civil Twilight 6:09 AM CST 5:05 PM CST
Nautical Twilight 5:37 AM CST 5:37 PM CST
Astronomical Twilight 5:06 AM CST 6:09 PM CST
Moon 11:42 AM CST (11/19) 11:01 PM CST (11/19)
Length of Visible Light 10h 56m
Length of Day
9h 59m
Waxing Crescent, 41% of the Moon is Illuminated
Nov 19
Waxing Crescent
Nov 20
First Quarter
Nov 28
Full
Dec 6
Last Quarter
Dec 13
New

Hourly Weather History & Observations

Time (CST) Temp. Dew Point Humidity Pressure Visibility Wind Dir Wind Speed Gust Speed Precip Events Conditions
12:15 AM 37.0 °F 35.6 °F 95% 30.34 in 7.0 mi Calm Calm - N/A   Clear
12:35 AM 36.5 °F 35.4 °F 96% 30.33 in 10.0 mi Calm Calm - N/A   Clear
12:55 AM 36.9 °F 35.6 °F 95% 30.33 in 7.0 mi Calm Calm - N/A   Clear
1:15 AM 36.5 °F 35.6 °F 97% 30.33 in 7.0 mi Calm Calm - N/A   Clear
1:35 AM 35.8 °F 34.5 °F 95% 30.33 in 7.0 mi Calm Calm - N/A   Clear
1:55 AM 36.5 °F 35.2 °F 95% 30.32 in 7.0 mi Calm Calm - N/A   Clear
2:15 AM 36.7 °F 35.6 °F 96% 30.32 in 7.0 mi Calm Calm - N/A   Clear
2:35 AM 36.1 °F 35.1 °F 96% 30.33 in 10.0 mi Calm Calm - N/A   Clear
2:55 AM 35.6 °F 34.2 °F 94% 30.32 in 7.0 mi Calm Calm - N/A   Clear
3:15 AM 35.6 °F 34.5 °F 96% 30.31 in 7.0 mi Calm Calm - N/A   Clear
3:35 AM 35.4 °F 34.3 °F 96% 30.31 in 7.0 mi Calm Calm - N/A   Clear
3:55 AM 34.7 °F 33.8 °F 97% 30.32 in 7.0 mi Calm Calm - N/A   Clear
4:15 AM 35.6 °F 34.2 °F 94% 30.31 in 7.0 mi Calm Calm - N/A   Clear
4:35 AM 35.8 °F 34.7 °F 96% 30.32 in 7.0 mi Calm Calm - N/A   Clear
4:55 AM 35.6 °F 34.3 °F 95% 30.32 in 7.0 mi Calm Calm - N/A   Clear
5:15 AM 36.0 °F 34.7 °F 95% 30.32 in 7.0 mi Calm Calm - N/A   Clear
5:35 AM 36.7 °F 35.2 °F 95% 30.31 in 7.0 mi Calm Calm - N/A   Clear
5:55 AM 36.0 °F 35.1 °F 97% 30.32 in 7.0 mi Calm Calm - N/A   Clear
6:15 AM 35.8 °F 34.7 °F 96% 30.32 in 7.0 mi Calm Calm - N/A   Clear
6:35 AM 36.5 °F 35.6 °F 97% 30.31 in 7.0 mi Calm Calm - N/A   Clear
6:55 AM 36.9 °F 35.8 °F 96% 30.31 in 7.0 mi Calm Calm - N/A   Clear
7:35 AM 37.0 °F 35.8 °F 95% 30.32 in 7.0 mi Calm Calm - N/A   Clear
7:55 AM 38.5 °F 37.0 °F 95% 30.32 in 7.0 mi Calm Calm - N/A   Clear
8:15 AM 42.4 °F 40.5 °F 93% 30.32 in 7.0 mi Calm Calm - N/A   Clear
8:35 AM 45.1 °F 40.6 °F 84% 30.33 in 7.0 mi Calm Calm - N/A   Clear
8:55 AM 46.0 °F 41.7 °F 85% 30.32 in 7.0 mi Calm Calm - N/A   Clear
9:15 AM 47.1 °F 42.8 °F 85% 30.32 in 7.0 mi Calm Calm - N/A   Clear
9:35 AM 48.9 °F 43.3 °F 81% 30.32 in 7.0 mi Calm Calm - N/A   Clear
9:55 AM 50.5 °F 43.7 °F 77% 30.32 in 7.0 mi Calm Calm - N/A   Clear
10:15 AM 53.1 °F 43.2 °F 69% 30.32 in 7.0 mi Calm Calm - N/A   Clear
10:35 AM 54.9 °F 42.8 °F 64% 30.32 in 7.0 mi SSE 4.6 mph - N/A   Clear
10:55 AM 56.8 °F 42.8 °F 59% 30.30 in 10.0 mi South 3.5 mph - N/A   Clear
11:15 AM 58.1 °F 42.4 °F 56% 30.30 in 7.0 mi South 3.5 mph - N/A   Clear
11:35 AM 59.2 °F 43.3 °F 56% 30.29 in 7.0 mi Calm Calm - N/A   Clear
11:55 AM 60.3 °F 43.9 °F 55% 30.27 in 10.0 mi Calm Calm - N/A   Clear
12:15 PM 61.0 °F 43.3 °F 52% 30.27 in 7.0 mi Calm Calm - N/A   Clear
12:35 PM 62.1 °F 41.9 °F 48% 30.25 in 7.0 mi SSE 5.8 mph - N/A   Clear
12:55 PM 62.1 °F 42.8 °F 49% 30.24 in 10.0 mi SSE 5.8 mph - N/A   Clear
1:15 PM 62.6 °F 42.6 °F 48% 30.25 in 10.0 mi South 4.6 mph - N/A   Scattered Clouds
1:35 PM 63.1 °F 39.4 °F 42% 30.24 in 10.0 mi Calm Calm - N/A   Clear
1:55 PM 63.3 °F 39.6 °F 42% 30.23 in 10.0 mi Calm Calm - N/A   Clear
2:15 PM 63.3 °F 41.7 °F 45% 30.22 in 10.0 mi East 3.5 mph - N/A   Clear
2:35 PM 62.1 °F 45.0 °F 53% 30.21 in 10.0 mi East 4.6 mph - N/A   Clear
2:55 PM 61.2 °F 46.9 °F 60% 30.21 in 10.0 mi East 4.6 mph - N/A   Mostly Cloudy
3:15 PM 62.1 °F 45.0 °F 53% 30.21 in 10.0 mi East 4.6 mph - N/A   Mostly Cloudy
3:35 PM 61.3 °F 44.6 °F 54% 30.21 in 10.0 mi ESE 3.5 mph - N/A   Mostly Cloudy
3:55 PM 60.8 °F 44.8 °F 56% 30.20 in 10.0 mi East 3.5 mph - N/A   Mostly Cloudy
4:15 PM 59.7 °F 44.8 °F 58% 30.20 in 10.0 mi Calm Calm - N/A   Overcast
4:35 PM 57.9 °F 47.7 °F 69% 30.20 in 7.0 mi Calm Calm - N/A   Overcast
4:55 PM 56.5 °F 46.9 °F 70% 30.20 in 10.0 mi Calm Calm - N/A   Overcast
5:15 PM 56.3 °F 46.8 °F 70% 30.20 in 10.0 mi Calm Calm - N/A   Overcast
5:35 PM 54.9 °F 46.0 °F 72% 30.21 in 10.0 mi Calm Calm - N/A   Overcast
5:55 PM 56.3 °F 45.5 °F 67% 30.20 in 10.0 mi Calm Calm - N/A   Overcast
6:15 PM 52.9 °F 45.9 °F 77% 30.21 in 10.0 mi Calm Calm - N/A   Overcast
6:35 PM 53.8 °F 44.6 °F 71% 30.21 in 10.0 mi Calm Calm - N/A   Overcast
6:55 PM 53.2 °F 46.0 °F 77% 30.19 in 10.0 mi SE 5.8 mph - N/A   Light Drizzle
7:15 PM 53.1 °F 44.8 °F 73% 30.20 in 10.0 mi Calm Calm - N/A   Overcast
7:35 PM 52.0 °F 44.8 °F 76% 30.19 in 10.0 mi SSE 4.6 mph - N/A   Mostly Cloudy
7:55 PM 52.0 °F 44.8 °F 76% 30.19 in 7.0 mi South 3.5 mph - N/A   Overcast
8:15 PM 51.8 °F 44.4 °F 76% 30.19 in 7.0 mi South 4.6 mph - N/A   Overcast
8:35 PM 51.1 °F 44.2 °F 77% 30.19 in 10.0 mi South 4.6 mph - N/A   Overcast
8:55 PM 50.5 °F 43.7 °F 77% 30.18 in 10.0 mi South 5.8 mph - N/A   Scattered Clouds
9:15 PM 50.2 °F 43.0 °F 76% 30.18 in 10.0 mi SSE 4.6 mph - N/A   Clear
9:35 PM 48.4 °F 42.1 °F 79% 30.18 in 10.0 mi Calm Calm - N/A   Clear
9:55 PM 48.0 °F 42.3 °F 80% 30.18 in 10.0 mi Calm Calm - N/A   Scattered Clouds
10:15 PM 47.3 °F 41.2 °F 79% 30.17 in 10.0 mi SE 3.5 mph - N/A   Mostly Cloudy
10:35 PM 46.0 °F 41.4 °F 84% 30.17 in 10.0 mi Calm Calm - N/A   Mostly Cloudy
10:55 PM 46.8 °F 42.1 °F 84% 30.17 in 10.0 mi Calm Calm - N/A   Overcast
11:15 PM 47.5 °F 43.7 °F 87% 30.16 in 10.0 mi Calm Calm - N/A   Overcast
11:35 PM 47.8 °F 44.2 °F 87% 30.16 in 10.0 mi Calm Calm - N/A   Overcast
11:55 PM 48.4 °F 45.1 °F 89% 30.16 in 10.0 mi Calm Calm - N/A   Overcast